Powrót do katalogu

DMSP 5D-2 F13 DEB

AktywnySSO
NORAD 40469·DEBRIS·🇺🇸 United States

Wystrzelony Mar 24, 1995 z Vandenberg Space Force Base

Loading…

Następne Przeloty (najbliższe 24 godziny)

TLE

ŚwieżeSource: Space-Track

Epoka: Sep 13, 2026, 10:22 UTC

1 40469U 95015BM  26256.43204560  .00006153  00000-0  12506-2 0  9999
2 40469  98.5596 327.1480 0021348 177.6703 182.4600 14.61344056602183

Śledź DMSP 5D-2 F13 DEB w czasie rzeczywistym z AllMySat

Download on the App Store